Find Starlink 37340

NORAD ID: 68708 Int'l Des: 2026-081 Owner: SPXS Country: US Constellation: starlink operational
LEOCIRCULAR

Current View

Loading 3D Globe...

About Starlink 37340

Description loading...

Upcoming Passes

Passes for default location (London). Set your location on the main map for personalized predictions.

Altitude History

Loading altitude history...

Two-Line Element Set

1 68708U 26081K 26151.51623716 .00047363 00000-0 13605-2 0 9992
2 68708 53.1590 9.3966 0001192 91.8705 268.2434 15.35393178 7427
Epoch: May 31, 2026 • Age: 5 hours

Current Status

Altitude 461.5 km
Velocity 7.64 km/s
Sub-Earth Point -5.30°S, 34.77°E
Launch Date Apr 14, 2026
Age 0.1 years
Type internet

Technical Details

Classification Payload
Mass 575.00 kg
Dry Mass 530.00 kg
Total Mass 575.00 kg
Length 0.30 m
Diameter 4.10 m
Span 29.00 m
Shape Box + pan
Manufacturer SPXS
Bus Type Starlink V2MO
Phase Status In Orbit
Owner/State SPXS/US

Most Searched